Preview of NWS' New Version of Forecast
This preview is not operational and should not be used for support decisions.
Latest weather observations around

Hunter U. S. Army Airfield (KSVN)

Using English Units (Switch to International System of Units)
Date/ Time (EDT) Wind (mph) Vis. (mi) Weather Sky Cond. Temp (°F) Rel. Humidity Wind Chill (°F) Heat Index (°F) Pressure Precip. (in)
Air Dwpt 6 hour Altimeter (inHg) Sea level (inHg) 1 hr 3 hr 6 hr
Max Min
Sep 16 21:56 Calm 10 Clear CLR 78 72     83%   79 29.93 29.94      
Sep 16 20:56 Calm 10 Clear CLR 80 71     75%   83 29.92 29.93      
Sep 16 19:56 E 5 10 Clear CLR 83 69     61%   87 29.91 29.92      
Sep 16 18:56 NNE 6 10 Clear CLR 90 64     43%   92 29.9 29.91      
Sep 16 17:56 N 13 10 Clear CLR 92 63     38%   93 29.9 29.91      
Sep 16 16:56 N 16 10 Clear CLR 94 65     39%   96 29.89 29.9      
Sep 16 15:56 N 10 10 Mostly Clear FEW055 92 68     46%   97 29.91 29.92      
Sep 16 14:56 NNE 9 10 Partly Cloudy SCT050 92 69     48%   97 29.93 29.94      
Sep 16 13:56 N 10 10 Partly Cloudy FEW048 SCT180 90 70     52%   96 29.96 29.97      
Sep 16 12:56 NE 16 10 Partly Cloudy SCT041 SCT170 90 70     52%   95 29.97 29.98      
Sep 16 12:30 N 17 10 Mostly Clear FEW038 88 70     55%   93 29.98 29.99      
Sep 16 11:56 N 14 10 Mostly Clear FEW037 88 71     57%   94 29.98 29.99      
Sep 16 10:56 NNE 13 10 Clear CLR 86 71     62%   91 30 30.01      
Sep 16 09:56 N 13 10 Clear CLR 81 72     72%   86 30 30.01      
Sep 16 08:56 N 10 10 Clear CLR 79 72     79%   82 29.99 30      
Sep 16 07:56 N 10 10 Clear CLR 75 71     88%   76 29.98 29.99      
Sep 16 06:56 N 8 10 Clear CLR 75 71     89%   76 29.98 29.99      
Sep 16 05:56 N 8 10 Clear CLR 75 72     90%   76 29.97 29.98      
Sep 16 04:56 N 7 10 Clear CLR 75 72     90%   77 29.95 29.96      
Sep 16 03:56 N 6 10 Clear CLR 75 72     89%   77 29.95 29.96      
Sep 16 02:56 NNE 3 10 Clear CLR 76 72     88%   78 29.96 29.97      
Sep 16 01:56 N 7 10 Clear CLR 77 72     86%   78 29.97 29.98      
Sep 16 00:56 N 7 10 Clear CLR 78 73     85%   79 29.97 29.98      
Sep 15 23:56 N 7 10 Clear CLR 78 73     84%   80 29.98 29.99      
Sep 15 22:56 NNE 6 10 Clear CLR 79 73     82%   82 29.99 30      
Sep 15 21:56 NNE 6 10 Clear CLR 80 73     80%   85 29.99 30      
Sep 15 20:56 E 6 10 Clear CLR 81 72     76%   85 29.98 29.99      
Sep 15 19:56 ENE 6 10 Clear CLR 82 73     75%   87 29.97 29.98      
Sep 15 18:56 ENE 7 10 Mostly Clear FEW065 84 72     69%   89 29.98 29.99      
Sep 15 17:56 ENE 13 10 Partly Cloudy SCT028 85 73     69%   91 29.98 29.99      
Sep 15 16:56 E 9 10 Mostly Clear FEW030 86 74     67%   93 29.97 29.98      
Sep 15 15:56 E 11 10 Partly Cloudy SCT028 SCT047 86 74     66%   94 29.98 29.99      
Sep 15 14:56 E 13 10 Mostly Cloudy BKN037 89 74     63%   98 29.99 30      
Sep 15 14:14 NE 13 10 Partly Cloudy FEW038 SCT190 88 72     59%   94 30.01 30.02      
Sep 15 13:56 E 11 10 Partly Cloudy FEW037 SCT150 SCT180 88 72     60%   95 30.02 30.03      
Sep 15 12:56 NE 13 10 Partly Cloudy FEW032 FEW180 SCT200 88 72     60%   95 30.02 30.03      
Sep 15 11:56 ENE 14 10 Partly Cloudy SCT030 87 73     63%   94 30.03 30.04      
Sep 15 10:56 NE 11 10 Mostly Clear FEW022 85 74     69%   92 30.04 30.05      
Sep 15 09:56 NE 10 10 Mostly Clear FEW015 81 75     80%   88 30.05 30.06      
Sep 15 08:56 NNE 10 10 Clear CLR 78 75     91%   79 30.06 30.07      
Sep 15 07:56 N 8 10 Clear CLR 76 73     93%   77 30.06 30.07      
Sep 15 07:26 NNE 6 10 Partly Cloudy SCT006 75 73     94%   77 30.06 30.07      
Sep 15 06:56 NNE 5 10 Mostly Cloudy BKN006 75 73     93%   76 30.05 30.06      
Sep 15 05:56 NNE 8 10 Mostly Cloudy BKN006 75 72     93%   76 30.03 30.04      
Sep 15 04:56 NNE 7 10 Mostly Cloudy BKN006 75 73     93%   77 30.02 30.03      
Sep 15 04:11 N 7 10 Mostly Cloudy BKN006 75 73     94%   77 30.02 30.03      
Sep 15 03:56 N 6 10 Mostly Cloudy BKN005 75 73     93%   77 30.02 30.03      
Sep 15 03:11 N 6 10 Mostly Cloudy BKN006 75 73     94%   77 30.03 30.04      
Sep 15 02:56 N 6 10 Mostly Clear FEW006 75 72     92%   77 30.04 30.05      
Sep 15 01:56 NNE 6 10 Clear CLR 76 73     91%   77 30.06 30.07      
Sep 15 00:56 N 3 10 Clear CLR 76 73     91%   77 30.07 30.08      
Sep 14 23:56 NE 5 10 Clear CLR 77 73     89%   78 30.08 30.09      
Sep 14 22:56 NE 8 10 Clear CLR 77 73     87%   79 30.1 30.11      
Sep 14 21:56 NE 8 10 Clear CLR 78 74     85%   80 30.1 30.11      
Sep 14 19:56 ENE 10 10 Partly Cloudy FEW021 SCT028 81 74     79%   87 30.08 30.09      
Sep 14 18:56 ENE 11 10 Clear CLR 82 73     74%   88 30.08 30.09      
Sep 14 17:56   10 Clear CLR 85 74     69%   93 30.07 30.08      
Sep 14 16:56 ENE 13 10 Partly Cloudy SCT033 87 72     62%   94 30.08 30.09      
Sep 14 15:56 ENE 13 10 Mostly Clear FEW028 86 73     66%   93 30.09 30.1      
Sep 14 14:56 E 11 10 Mostly Cloudy SCT030 SCT038 BKN100 86 73     67%   93 30.11 30.12      
Sep 14 13:56 NE 11 10 Mostly Cloudy SCT026 BKN035 86 73     66%   94 30.13 30.14      
Sep 14 13:26 ENE 10 10 Mostly Cloudy SCT023 BKN033 BKN190 84 73     70%   91 30.13 30.14      
Sep 14 12:56 ENE 8 10 Mostly Cloudy BKN023 BKN190 85 74     70%   92 30.15 30.16      
Sep 14 11:56 NNE 11 10 Cloudy BKN017 OVC024 81 73     76%   87 30.16 30.17      
Sep 14 10:56 NE 11 10 Cloudy BKN017 OVC022 80 73     79%   84 30.16 30.17      
Sep 14 10:41 NE 9 10 Cloudy OVC016 81 73     79%   85 30.16 30.17      
Sep 14 09:56 NE 10 10 Cloudy OVC012 79 74     85%   83 30.15 30.16      
Sep 14 09:26 NE 9 10 Cloudy OVC010 79 75     89%   82 30.15 30.16      
Sep 14 08:56 NNE 9 10 Cloudy OVC007 77 74     91%   78 30.15 30.16      
Sep 14 08:41 NNE 9 10 Cloudy OVC007 77 73     89%   79 30.14 30.15      
Sep 14 07:56 NNE 11 10 Cloudy OVC006 75 72     92%   76 30.13 30.14      
Sep 14 06:56 NNE 6 10 Mostly Cloudy BKN005 74 71     91%   75 30.12 30.13      
Sep 14 05:56 NNE 6 10 Cloudy OVC006 74 71     91%   75 30.11 30.12      
Sep 14 05:41 NNE 6 10 Mostly Cloudy BKN006 73 72     94%   75 30.1 30.11      
Sep 14 04:56 N 7 10 Mostly Clear FEW044 FEW140 74 71     90%   75 30.09 30.1      
Sep 14 03:56 N 8 10 Clear CLR 75 71     89%   76 30.09 30.1      
Sep 14 02:56 N 6 10 Mostly Clear FEW023 FEW034 77 73     88%   78 30.11 30.12      
Sep 14 01:56 NE 5 10 Clear CLR 78 73     86%   79 30.11 30.12      
Sep 14 00:56 NE 7 10 Mostly Cloudy FEW024 SCT030 BKN038 79 73     83%   82 30.13 30.14      
Sep 14 00:41 NE 8 10 Mostly Cloudy SCT023 BKN035 79 73     84%   82 30.13 30.14      
Sep 13 23:56 ENE 6 10 Mostly Cloudy SCT022 BKN029 BKN034 80 73     81%   84 30.13 30.14      
Sep 13 22:56 ESE 9 10 Clear CLR 79 73     81%   83 30.12 30.13      
Sep 13 21:56 E 7 10 Clear   79 72     78%   83 30.13 30.14      
May 15 10:49 ESE 9 10 Partly Cloudy SCT016 SCT160 75 72     89%   77 29.98 29.99      
May 15 10:36 SSE 7 10 Light Rain SCT016 SCT160 77 73     89%   79 29.98 29.99      
May 15 00:35 E 7 10 Light Rain FEW024 FEW038 73 70     89%   75 29.99        
May 12 10:56 Calm 10 Clear CLR 88 58     37%   87 30.12 30.13      
May 11 21:56 SSE 5 10 Clear CLR 76 64     68%   76 30.06 30.07      
Jun 12 07:58 ENE 5 10 Clear CLR 77 77     100%   79 30.15 30.16      
Jun 11 18:33 E 9 10 Mostly Clear FEW028 81 75     84%   86 30.13 30.14      
Jun 11 17:10 SE 11 10 Mostly Clear FEW030 82        %     30.16 30.17      
Jun 11 15:58 ESE 10 10 Partly Cloudy FEW029 SCT048 85 78     79%   96 30.17 30.18      
Jun 11 14:58 E 15 10 Partly Cloudy FEW027 SCT190 SCT210 83 77     84%   91 30.18 30.19      
Jun 11 07:58 E 5 10 Clear CLR 77 77     100%   79 30.16 30.17      
Jun 10 22:58 ESE 7 10 Clear CLR 78 76     96%   80 30.13 30.14      
Jun 10 17:44 ESE 14 10 Mostly Clear FEW033 82 75     79%   89 30.07 30.08      
Jun 09 17:07 SE 10 10 Mostly Clear FEW095 79 72     79%   82 29.93 29.94      
Jun 09 00:58 Calm 10 Clear CLR 65 65     100%     29.87 29.88      
Jun 08 18:58 Calm 10 Clear CLR 79 64     61%   79 29.81 29.82      
Jun 08 11:36 N 7 10 Light Drizzle SCT015 BKN020 BKN190 68 66     94%     29.84 29.85      
Jun 08 11:23 N 9 10 Light Drizzle SCT015 BKN018 BKN210 68 66     94%     29.84 29.85      
Notice The following observation data may not be complete
Jun 08 08:10   10 Cloudy BKN007 OVC015          %              
Jun 07 19:58 NE 8 10 Cloudy SCT009 BKN014 OVC024 68 68     100%     29.76 29.77 0   0
Jun 07 17:47 Calm 10 Light Rain BKN008 BKN016 72 72     100%   73 29.72 29.73      
Jun 07 13:58 NE 11 10 Cloudy OVC020 75 74     96%   77 29.73 29.74     0
Jun 05 20:58 SSW 3 10 Partly Cloudy SCT080 78 77     95%   81 29.79 29.8      
Jun 05 19:03 WSW 17 10 Light Drizzle FEW050 BKN065 82 73     74%   88 29.78 29.79